#timestamp,LO_Frequency,Hit,Temp,Hum 
1480150815.3,286046968.0,N,0.0,0.0
1480150835.1,286046967.1,N,0.0,0.0
1480150855.9,286046967.1,N,0.0,0.0
1480150875.7,286046966.9,N,0.0,0.0
1480150895.5,286046966.4,N,0.0,0.0
1480150915.4,286046969.1,N,0.0,0.0
1480150935.2,286046966.9,N,0.0,0.0
1480150955.1,286046966.5,N,0.0,0.0
1480150956.0,286046966.5,N,0.0,0.0
1480150975.8,286046967.5,N,0.0,0.0
1480150995.6,286046964.9,N,0.0,0.0
1480151015.5,286046967.6,N,0.0,0.0
1480151035.3,286046968.5,N,0.0,0.0
1480151055.1,286046966.5,N,0.0,0.0
1480151075.9,286046966.3,N,0.0,0.0
1480151095.7,286046962.9,N,0.0,0.0
1480151115.6,286046961.4,N,0.0,0.0
1480151135.4,286046959.8,N,0.0,0.0
1480151155.2,286046958.2,N,0.0,0.0
1480151175.1,286046956.9,N,0.0,0.0
1480151176.0,286046956.9,N,0.0,0.0
1480151195.8,286046958.0,N,0.0,0.0
1480151215.7,286046956.4,N,0.0,0.0
1480151235.5,286046954.4,N,0.0,0.0
1480151255.3,286046952.5,N,0.0,0.0
1480151275.2,286046952.8,N,0.0,0.0
1480151295.9,286046952.7,N,0.0,0.0
1480151315.7,286046950.3,N,0.0,0.0
1480151335.6,286046950.2,N,0.0,0.0
1480151355.4,286046951.5,N,0.0,0.0
1480151375.2,286046949.8,N,0.0,0.0
1480151395.1,286046950.0,N,0.0,0.0
1480151396.0,286046950.0,N,0.0,0.0
1480151415.8,286046947.2,N,0.0,0.0
1480151435.7,286046948.3,N,0.0,0.0
1480151455.5,286046948.4,N,0.0,0.0
1480151475.3,286046945.7,N,0.0,0.0
1480151495.2,286046946.3,N,0.0,0.0
1480151515.0,286046944.0,N,0.0,0.0
1480151515.9,286046944.0,N,0.0,0.0
1480151535.8,286046944.7,N,0.0,0.0
1480151555.6,286046945.2,N,0.0,0.0
1480151575.4,286046942.9,N,0.0,0.0
1480151595.3,286046943.4,N,0.0,0.0
1480151615.1,286046940.6,N,0.0,0.0
1480151635.8,286046941.7,N,0.0,0.0
1480151655.7,286046941.4,N,0.0,0.0
1480151675.5,286046941.6,N,0.0,0.0
1480151695.4,286046939.1,N,0.0,0.0
1480151715.2,286046939.5,N,0.0,0.0
1480151735.0,286046940.2,N,0.0,0.0
1480151735.9,286046940.2,N,0.0,0.0
1480151755.8,286046940.3,N,0.0,0.0
1480151775.6,286046937.4,N,0.0,0.0
1480151795.5,286046937.4,N,0.0,0.0
1480151815.3,286046940.4,N,0.0,0.0
1480151835.1,286046937.9,N,0.0,0.0
1480151855.9,286046938.8,N,0.0,0.0
1480151875.7,286046935.7,N,0.0,0.0
1480151895.5,286046936.4,N,0.0,0.0
1480151915.4,286046936.6,N,0.0,0.0
1480151935.2,286046936.9,N,0.0,0.0
1480151955.1,286046937.2,N,0.0,0.0
1480151956.0,286046937.2,N,0.0,0.0
1480151975.8,286046934.5,N,0.0,0.0
1480151995.6,286046934.9,N,0.0,0.0
1480152015.5,286046932.5,N,0.0,0.0
1480152035.3,286046932.7,N,0.0,0.0
1480152055.1,286046933.5,N,0.0,0.0
1480152075.9,286046934.0,N,0.0,0.0
1480152095.7,286046931.2,N,0.0,0.0
1480152115.6,286046931.7,N,0.0,0.0
1480152135.4,286046931.9,N,0.0,0.0
1480152155.2,286046932.1,N,0.0,0.0
1480152175.1,286046929.7,N,0.0,0.0
1480152176.0,286046929.7,N,0.0,0.0
1480152195.8,286046929.7,N,0.0,0.0
1480152215.7,286046932.3,N,0.0,0.0
1480152235.5,286046929.4,N,0.0,0.0
1480152255.3,286046930.2,N,0.0,0.0
1480152275.2,286046930.7,N,0.0,0.0
1480152295.0,286046928.3,N,0.0,0.0
1480152295.9,286046928.3,N,0.0,0.0
1480152315.7,286046928.0,N,0.0,0.0
1480152335.6,286046928.4,N,0.0,0.0
1480152355.4,286046929.1,N,0.0,0.0
1480152375.3,286046926.8,N,0.0,0.0
1480152395.1,286046926.3,N,0.0,0.0
1480152415.8,286046926.9,N,0.0,0.0
1480152435.7,286046927.1,N,0.0,0.0
1480152455.5,286046927.5,N,0.0,0.0
1480152475.4,286046924.6,N,0.0,0.0
1480152495.2,286046924.7,N,0.0,0.0
1480152515.0,286046924.7,N,0.0,0.0
1480152515.9,286046924.7,N,0.0,0.0
1480152535.8,286046924.5,N,0.0,0.0
1480152555.6,286046931.0,N,0.0,0.0
1480152575.4,286046941.5,N,0.0,0.0
1480152595.3,286046946.8,N,0.0,0.0
1480152615.1,286046945.9,N,0.0,0.0
1480152635.9,286046944.9,N,0.0,0.0
1480152655.7,286046942.9,N,0.0,0.0
1480152675.5,286046941.4,N,0.0,0.0
1480152695.4,286046940.1,N,0.0,0.0
1480152715.2,286046938.6,N,0.0,0.0
1480152735.0,286046935.7,N,0.0,0.0
1480152736.0,286046935.7,N,0.0,0.0
1480152755.8,286046936.8,N,0.0,0.0
1480152775.6,286046935.5,N,0.0,0.0
1480152795.5,286046933.5,N,0.0,0.0
1480152815.3,286046929.8,N,0.0,0.0
1480152835.1,286046930.7,N,0.0,0.0
1480152855.9,286046930.7,N,0.0,0.0
1480152875.7,286046927.9,N,0.0,0.0
1480152895.6,286046928.0,N,0.0,0.0
1480152915.4,286046929.0,N,0.0,0.0
1480152935.2,286046926.5,N,0.0,0.0
1480152955.1,286046926.7,N,0.0,0.0
1480152956.0,286046926.7,N,0.0,0.0
1480152975.8,286046927.2,N,0.0,0.0
1480152995.6,286046924.9,N,0.0,0.0
1480153015.5,286046925.6,N,0.0,0.0
1480153035.3,286046922.9,N,0.0,0.0
1480153055.2,286046922.9,N,0.0,0.0
1480153075.9,286046923.1,N,0.0,0.0
1480153095.7,286046923.5,N,0.0,0.0
1480153115.6,286046924.3,N,0.0,0.0
1480153135.4,286046923.7,N,0.0,0.0
1480153155.2,286046924.4,N,0.0,0.0
1480153175.1,286046921.9,N,0.0,0.0
1480153176.0,286046921.9,N,0.0,0.0
1480153195.8,286046919.9,N,0.0,0.0
1480153215.7,286046920.6,N,0.0,0.0
1480153235.5,286046918.1,N,0.0,0.0
1480153255.3,286046918.6,N,0.0,0.0
1480153275.2,286046918.6,N,0.0,0.0
1480153295.0,286046918.9,N,0.0,0.0
1480153295.9,286046918.9,N,0.0,0.0
1480153315.8,286046919.1,N,0.0,0.0
1480153335.6,286046919.3,N,0.0,0.0
1480153355.4,286046919.0,N,0.0,0.0
1480153375.3,286046919.1,N,0.0,0.0
1480153395.1,286046919.6,N,0.0,0.0
1480153415.8,286046916.9,N,0.0,0.0
1480153435.7,286046917.6,N,0.0,0.0
1480153455.5,286046915.7,N,0.0,0.0
1480153475.4,286046915.7,N,0.0,0.0
1480153495.2,286046915.7,N,0.0,0.0
1480153515.0,286046915.9,N,0.0,0.0
1480153515.9,286046915.9,N,0.0,0.0
1480153535.8,286046913.3,N,0.0,0.0
1480153555.6,286046914.0,N,0.0,0.0
1480153575.4,286046913.8,N,0.0,0.0
1480153595.3,286046913.8,N,0.0,0.0
1480153615.1,286046913.7,N,0.0,0.0
1480153635.9,286046913.6,N,0.0,0.0
1480153655.7,286046914.3,N,0.0,0.0
1480153675.5,286046911.9,N,0.0,0.0
1480153695.4,286046912.6,N,0.0,0.0
1480153715.2,286046912.7,N,0.0,0.0
1480153735.0,286046913.2,N,0.0,0.0
1480153736.0,286046913.2,N,0.0,0.0
1480153755.8,286046911.4,N,0.0,0.0
1480153775.6,286046911.3,N,0.0,0.0
1480153795.5,286046911.1,N,0.0,0.0
1480153815.3,286046911.5,N,0.0,0.0
1480153835.1,286046908.8,N,0.0,0.0
1480153855.9,286046908.6,N,0.0,0.0
1480153875.7,286046909.7,N,0.0,0.0
1480153895.6,286046909.5,N,0.0,0.0
1480153915.4,286046910.0,N,0.0,0.0
1480153935.2,286046907.8,N,0.0,0.0
1480153955.1,286046908.1,N,0.0,0.0
1480153956.0,286046908.1,N,0.0,0.0
1480153975.8,286046908.2,N,0.0,0.0
1480153995.6,286046907.7,N,0.0,0.0
1480154015.5,286046924.4,N,0.0,0.0
1480154035.3,286046924.8,N,0.0,0.0
1480154055.2,286046928.3,N,0.0,0.0
1480154075.9,286046930.4,N,0.0,0.0
1480154095.7,286046927.9,N,0.0,0.0
1480154115.6,286046924.8,N,0.0,0.0
1480154135.4,286046921.7,N,0.0,0.0
1480154155.2,286046920.0,N,0.0,0.0
1480154175.1,286046918.3,N,0.0,0.0
1480154176.0,286046918.3,N,0.0,0.0
1480154195.8,286046916.9,N,0.0,0.0
1480154215.7,286046918.0,N,0.0,0.0
1480154235.5,286046913.8,N,0.0,0.0
1480154255.3,286046913.6,N,0.0,0.0
1480154275.2,286046914.1,N,0.0,0.0
1480154295.0,286046914.7,N,0.0,0.0
1480154295.9,286046914.7,N,0.0,0.0
1480154315.8,286046911.9,N,0.0,0.0
1480154335.6,286046912.6,N,0.0,0.0
1480154355.4,286046913.0,N,0.0,0.0
1480154375.3,286046911.2,N,0.0,0.0
1480154395.1,286046909.4,N,0.0,0.0
